EW6674 Weather Reports


Display with metric or nautical units.
time (UTC)temp
F
wind
direction
speed
MPH
gust
MPH
rain 1hr
in
rain 24hr
in
rain mn
in
humidity
%
barometer
mb
20260507080015 67 178 2.0 5.0 0.00 0.14 0.00 77 1010.5
20260507074511 66 183 2.0 5.0 0.00 0.16 0.00 83 1010.4
20260507073007 64 182 1.0 5.0 0.00 0.16 0.00 81 1010.4
20260507071503 63 182 0.0 4.0 0.00 0.16 0.00 61 1010.3
20260507070105 61 103 3.0 7.0 0.00 0.16 0.00 58 1010.2
20260507064631 60 58 1.0 3.0 0.00 0.21 0.00 59 1010.2
20260507063112 60 66 1.0 4.0 0.00 0.21 0.00 60 1010.2
20260507061554 59 67 1.0 4.0 0.00 0.21 0.00 60 1010.0
20260507060110 58 67 2.0 4.0 0.00 0.21 0.00 62 1009.9
20260507054557 58 67 1.0 4.0 0.00 0.24 0.00 63 1009.9
20260507053053 58 74 1.0 4.0 0.00 0.24 0.00 63 1009.5
20260507051601 58 53 2.0 4.0 0.00 0.24 0.00 63 1009.4
20260507050048 58 52 3.0 5.0 0.00 0.24 0.00 64 1009.3
20260507044543 57 66 1.0 4.0 0.00 0.24 0.00 65 1009.2
20260507043042 56 69 2.0 3.0 0.00 0.24 0.00 67 1009.0
20260507041536 56 69 2.0 4.0 0.00 0.24 0.00 67 1008.9
20260507040033 57 71 2.0 3.0 0.00 0.24 0.00 68 1008.9
20260507034534 57 71 0.0 2.0 0.00 0.24 0.00 68 1008.8
20260507033031 57 71 0.0 2.0 0.00 0.24 0.00 68 1008.7
20260507031533 58 71 0.0 3.0 0.00 0.24 0.00 68 1008.7
20260507030030 58 71 1.0 3.0 0.00 0.24 0.00 67 1008.7
20260507024528 58 71 2.0 3.0 0.00 0.24 0.00 67 1008.7
20260507023025 59 67 2.0 4.0 0.00 0.24 0.00 66 1008.8
20260507021524 59 51 2.0 3.0 0.00 0.24 0.00 67 1008.7
20260507020022 59 49 1.0 4.0 0.00 0.24 0.00 68 1008.6
20260507014521 59 135 1.0 3.0 0.00 0.24 0.00 68 1008.6
20260507013023 60 135 0.0 2.0 0.00 0.24 0.00 69 1008.7
20260507011519 60 135 1.0 2.0 0.00 0.24 0.00 70 1008.7
20260507010021 60 135 0.0 2.0 0.00 0.24 0.00 71 1008.7
20260507004518 60 135 1.0 2.0 0.00 0.24 0.00 71 1008.7
20260507003015 60 135 0.0 3.0 0.00 0.24 0.00 72 1008.8
20260507001516 60 135 0.0 3.0 0.00 0.24 0.00 73 1008.8
20260507000011 60 135 1.0 3.0 0.00 0.24 0.00 74 1008.9
20260506234511 60 135 0.0 3.0 0.00 0.24 0.00 74 1008.9
20260506233012 61 135 1.0 3.0 0.00 0.24 0.00 75 1009.0
20260506231507 61 136 0.0 2.0 0.00 0.24 0.00 76 1009.1
20260506230017 61 136 1.0 3.0 0.00 0.24 0.00 77 1009.1
20260506224505 61 135 2.0 4.0 0.00 0.25 0.00 78 1009.1
20260506223003 60 135 3.0 5.0 0.00 0.25 0.00 80 1009.0
20260506221502 60 161 4.0 5.0 0.00 0.25 0.00 81 1009.1
20260506220133 60 165 3.0 5.0 0.00 0.25 0.00 83 1009.0
20260506214600 60 166 2.0 3.0 0.00 0.27 0.25 83 1009.0
20260506213111 60 165 0.0 3.0 0.00 0.27 0.25 83 1009.1
20260506211600 60 166 1.0 3.0 0.00 0.27 0.25 83 1009.1
20260506210106 60 165 1.0 5.0 0.00 0.27 0.25 82 1009.1
20260506204606 60 157 1.0 6.0 0.00 0.27 0.25 81 1009.2
20260506203057 60 195 2.0 4.0 0.00 0.27 0.25 79 1009.2
20260506201557 60 197 3.0 7.0 0.00 0.27 0.25 78 1009.2
20260506200056 61 177 2.0 5.0 0.00 0.27 0.25 75 1009.1
20260506194556 61 182 1.0 2.0 0.00 0.27 0.25 74 1008.8
20260506193055 61 182 1.0 6.0 0.00 0.27 0.25 74 1008.5
20260506191600 61 190 4.0 9.0 0.00 0.27 0.25 74 1008.3
20260506190055 62 182 3.0 9.0 0.00 0.27 0.25 73 1008.0
20260506184605 62 199 4.0 8.0 0.00 0.28 0.25 73 1008.1
20260506183053 62 198 5.0 12.0 0.00 0.28 0.25 73 1008.1
20260506181552 62 180 4.0 11.0 0.00 0.28 0.25 73 1008.0
20260506180052 61 161 4.0 14.0 0.00 0.28 0.25 73 1008.0
20260506174549 61 190 6.0 15.0 0.00 0.28 0.25 73 1007.9
20260506173051 61 192 5.0 9.0 0.00 0.28 0.25 73 1007.9
20260506171558 62 216 5.0 10.0 0.00 0.28 0.25 73 1007.7
20260506170052 61 200 7.0 13.0 0.00 0.28 0.25 74 1007.6
20260506164549 62 190 5.0 13.0 0.01 0.28 0.25 74 1007.6
20260506163047 62 205 7.0 13.0 0.03 0.28 0.25 75 1007.7
20260506161546 62 187 4.0 10.0 0.04 0.28 0.25 76 1007.7
20260506160058 62 190 5.0 14.0 0.04 0.28 0.25 78 1007.7
20260506154546 62 187 7.0 15.0 0.03 0.28 0.24 79 1007.6
20260506153044 63 180 6.0 12.0 0.01 0.27 0.22 81 1007.7
20260506151544 63 167 10.0 15.0 0.00 0.26 0.21 83 1007.7
20260506150042 63 172 5.0 12.0 0.00 0.26 0.21 83 1007.9
20260506144556 63 177 3.0 14.0 0.00 0.30 0.21 82 1007.9
20260506143041 63 178 9.0 15.0 0.00 0.30 0.21 82 1008.1
20260506141539 63 171 7.0 15.0 0.00 0.30 0.21 79 1008.1
20260506140038 63 162 7.0 14.0 0.00 0.30 0.21 79 1008.2
20260506134537 63 167 6.0 11.0 0.02 0.39 0.21 80 1008.3
20260506133036 63 167 7.0 15.0 0.02 0.39 0.21 81 1008.3
20260506131542 63 173 6.0 10.0 0.02 0.39 0.21 82 1008.6
20260506130034 63 196 6.0 13.0 0.02 0.39 0.21 83 1008.7
20260506124534 63 167 9.0 16.0 0.00 0.45 0.20 84 1008.8
20260506123032 64 229 8.0 19.0 0.00 0.45 0.20 84 1008.7
20260506121531 64 197 10.0 17.0 0.00 0.45 0.20 84 1008.6
20260506120030 64 182 7.0 11.0 0.00 0.45 0.20 83 1008.7
20260506114534 63 168 8.0 14.0 0.00 0.45 0.20 79 1008.7
20260506113022 62 161 8.0 18.0 0.01 0.45 0.20 76 1008.7
20260506111519 62 180 9.0 18.0 0.04 0.45 0.20 74 1008.8
20260506110021 62 185 8.0 15.0 0.07 0.45 0.20 71 1008.8
20260506104517 62 201 7.0 11.0 0.07 0.45 0.20 69 1009.0
20260506103017 62 199 5.0 9.0 0.06 0.44 0.19 72 1009.0
20260506101518 62 179 3.0 7.0 0.04 0.41 0.16 73 1009.2
20260506100022 62 148 1.0 7.0 0.01 0.38 0.13 72 1009.3
20260506094513 62 182 3.0 8.0 0.01 0.38 0.13 71 1009.4
20260506093011 61 144 6.0 9.0 0.01 0.38 0.13 72 1009.4
20260506091510 61 149 6.0 10.0 0.00 0.37 0.12 71 1009.5
20260506090009 61 132 5.0 9.0 0.00 0.37 0.12 70 1009.3
20260506084508 62 167 5.0 10.0 0.02 0.37 0.12 64 1009.3
20260506083005 61 164 5.0 12.0 0.02 0.37 0.12 63 1009.0
20260506081506 61 173 5.0 9.0 0.02 0.37 0.12 60 1009.0